Location: Bremen
(53.0793°N, 8.8017°E)
Time: 17:56:03
(UTC+01:00)

ISS - Pass Details

Date: 18 November 2025
Orbit: 416 x 420 km, 51.6° (Epoch: 12 December)

Event Time Altitude Azimuth Distance (km) Brightness Sun altitude
Rises 18:58:16 0° 252° (WSW) 2,367 1.4 -22.6°
Reaches altitude 10° 19:00:23 10° 249° (WSW) 1,502 0.0 -22.9°
Enters shadow 19:02:46 40° 229° (SW) 632 -2.6 -23.3°
